Regional Weather Roundup
Issued by NWS Newport/Morehead, NC

Current Version | Previous Version | Graphics & Text | Print | Product List | Glossary Off
Versions: 1 2 3 4 5 6 7 8 9 10 11 12 13 14 15 16 17 18 19 20 21 22 23 24 25 26 27 28 29 30 31 32 33 34 35 36 37 38 39 40 41 42 43 44 45 46 47 48 49 50

639
ASUS42 KMHX 251313
RWRMHX
WEATHER ROUNDUP FOR EASTERN NORTH CAROLINA
NATIONAL WEATHER SERVICE NEWPORT/MOREHEAD CITY NC
900 AM EDT TUE APR 25 2017

NOTE: "FAIR" INDICATES FEW OR NO CLOUDS BELOW 12,000 FEET
WITH NO SIGNIFICANT WEATHER AND/OR OBSTRUCTIONS TO VISIBILITY

NCZ015>017-031-032-045>047-102-103-251400-
NORTH COAST

CITY           SKY/WX    TMP DP  RH WIND       PRES   REMARKS
EDENTON        MOSUNNY   67  62  81 S9        29.63R
ELIZABETH CITY PTSUNNY   66  62  87 S10       29.64R
KITTY HAWK     SUNNY     67  60  78 CALM      29.64R
MANTEO         SUNNY     67  61  82 SW9       29.65R

$$

NCZ045>047-081-094-103-104-251400-
CENTRAL COAST

CITY           SKY/WX    TMP DP  RH WIND       PRES   REMARKS
FRISCO         MOSUNNY   72  64  76 SW10      29.64R HAZE

$$

NCZ095-097-098-100-101-251400-
SOUTHERN COAST

CITY           SKY/WX    TMP DP  RH WIND       PRES   REMARKS
BEAUFORT       MOSUNNY   69  66  90 SW5       29.61R
CEDAR ISLAND   NOT AVBL
JACKSONVILLE   PTSUNNY   67  65  93 CALM      29.61R
PINEY ISLAND   SUNNY    N/A N/A N/A SW5       29.61S
WILMINGTON     CLOUDY    64  64 100 SW14      29.62R


$$

NCZ011>013-027>030-043-044-078>080-089-090>093-098-251400-
COASTAL PLAIN

CITY           SKY/WX    TMP DP  RH WIND       PRES   REMARKS
AHOSKIE          N/A     63  60  93 CALM      29.56R
CLINTON        CLOUDY    62  62 100 CALM      29.62R FOG
ELIZABETHTOWN  MOSUNNY   63  63 100 W3        29.62R
GOLDSBORO      CLOUDY    64  64  99 N3        29.58R
GREENVILLE     CLOUDY    64  63  94 SW6       29.63R
HAVELOCK       PTSUNNY   69  63  81 W6        29.62R
KENANSVILLE    CLOUDY    64  63  94 CALM      29.61R
KINSTON        MOSUNNY   64  61  88 CALM      29.61R
NEW BERN       CLOUDY    65  64  97 VRB3      29.63R
RICHLANDS      CLOUDY    66  63  90 VRB3      29.62R
ROCKY MOUNT    LGT RAIN  62  62 100 NW8       29.58F
WASHINGTON     MOSUNNY   64  60  88 S6        29.61R
WHITEVILLE     CLOUDY    59  58  97 W3        29.62R FOG

$$

AMZ130-135-150-152-154-156-158-170-250-252-270-ANZ085-086-088-633-658-670-251400-
MARINE OBSERVATIONS

STATION/POSITION TIME  TEMP    WIND        PRES    WAVE   SWELL
                       AIR SEA DIR/SP/G            HT/PER HT/PER
                 (UTC) (F)     (DEG/KT/KT) (MB)    (FT/S) (FT/S)
CHESAPEAKE LIGHT NOT AVBL
64 E VA BEACH    1250   59 54  130/ 12/ 16 1005.0   15/10  15/10
DUCK             1248   63 60  150/ 11/ 12 1003.0
2 E DUCK         1230      58                N/A    11/11   7/11
OREGON INLET     1242   65 63  210/  8/  9 1003.9
13E OREGON INLT  1248      57                N/A    11/10  11/10
HATTERAS CG      1248   72 67  190/  5/ 11 1003.2
DIAMOND BUOY     1250   73 78  170/ 12/ 14 1003.6   12/12  11/12
CAPE LOOKOUT     1200   69        CALM     1002.1
BEAUFORT LAB     1248   67 65   CALM  /  3 1001.7
30 SE NEW RVR IN 1208   70     250/ 12/ 16 1002.2
30 SE NEW RVR IN 1243      71                N/A     8/10   5/11
27 SE WRIGHTSVLE 1208   69 72  230/ 12/ 17 1001.6
5 SE WRIGHTSVLE  1208   67 69  230/ 14/ 19 1002.0
225 S CAPE HAT   1250   72 75  200/ 14/ 17 1006.2    9/10   7/10
41 SE CHARLESTON 1250   65 72  280/ 19/ 25 1004.5    7/10   5/10

$$




USA.gov is the U.S. government's official web portal to all federal, state and local government web resources and services.